星链-36139(STARLINK-36139)

导读

STARLINK-36139是由美国SpaceX公司于2025年12月8日发射的星链(Starlink)卫星,属于星链全球卫星互联网星座的组成部分,运行于近地轨道(LEO)。星链星座旨在为全球缺乏传统基础设施的偏远地区提供高速低延迟的宽带互联网服务,该卫星将助力星座扩容,进一步提升全球覆盖能力与网络服务稳定性,支持包括直连手机通信等新一代服务拓展。

基本信息
目录编号:
66966
目录名称:
STARLINK-36139
国际标识:
2025-288H
轨道中心:
EARTH
卫星名称:
星链-36139
卫星全名:
星链-36139(STARLINK-36139)
卫星状态:
在轨 (已飞行270 天)
发射日期:
2025-12-08 UTC
国别 :
美国 (US)
星等 :
--
轨道信息
数据来源 国际轨道数据
星历时间: 2026-09-03T23:08:24+0800
14小时前
查看轨道信息
半长轴: 6861.124km
偏心率: 0.0000884
轨道倾角: 43.002°
近地点辐角 230.803°
升交点赤经 98.325°
平近点角 129.274°
近地点: 482.38km
远地点: 483.594km
周期: 94.265分钟
每日圈数: 15.27601
详细信息
固有亮度:
5
最大亮度:
2.5
卫星平台:
Starlink V1.0
覆盖范围:
全球
运营商:
太空探索技术公司
运营商所在国:
美国
制造商(研发单位):
太空探索技术公司
制造商所在国:
美国
使用方式:
暂无
卫星简介
Starlink 计划是 SpaceX 推出的全球卫星互联网项目,通过发射低轨道卫星,为全球尤其是偏远地区提供高速、低延迟的互联网服务。自 2019 年起,Starlink 已部署数千颗卫星,旨在缩小全球数字鸿沟,推动互联网普及。该项目还为军事、航空等行业提供通信支持,带来广泛经济效益。
2D轨道图
3D轨道图
轨道高度分析图
轨道倾角分析图
轨道综合分析图
查看轨道综合分析图
交会数据列表
事件ID 空间交会对象 最接近时刻(TCA) 交会距离 交会风险概率(CRP) 交会风险指数(CRI) 操作
CDM_260904-111805-989406-696622
2026-09-04T
11:18:51+0000
0.317 km
远距离
3.485924E-4 高风险 0.86
CDM_260905-024605-550106-696621
2026-09-05T
02:46:00+0000
0.292 km
中距离
2.925903E-4 高风险 0.84
CDM_260904-171906-696606-731121
2026-09-04T
17:19:31+0000
0.363 km
远距离
2.229354E-4 高风险 0.82
CDM_260905-081505-550106-696621
2026-09-05T
08:15:32+0000
0.570 km
远距离
6.43133E-5 中风险 0.71
CDM_260905-112206-696606-731121
2026-09-05T
11:22:15+0000
0.653 km
远距离
5.155622E-5 中风险 0.69
CDM_260904-053705-956506-696621
2026-09-04T
05:37:51+0000
0.536 km
远距离
4.193314E-5 中风险 0.67
CDM_260904-185306-696606-731121
2026-09-04T
18:53:40+0000
0.895 km
远距离
1.864795E-5 中风险 0.6
CDM_260905-125606-696606-731121
2026-09-05T
12:56:24+0000
0.932 km
远距离
1.62857E-5 中风险 0.59
CDM_260903-215805-989406-696622
2026-09-03T
21:58:33+0000
1.107 km
极远距离
1.201606E-5 中风险 0.57
CDM_260903-032905-322006-696621
2026-09-03T
03:29:57+0000
1.327 km
极远距离
9.849954E-6 低风险 0.55